TimeMST,TemperatureF,Dew PointF,Humidity,Sea Level PressureIn,VisibilityMPH,Wind Direction,Wind SpeedMPH,Gust SpeedMPH,PrecipitationIn,Events,Conditions,WindDirDegrees,DateUTC
12:15 AM,41.4,29.3,62,29.78,10.0,Calm,Calm,-,N/A,,Clear,0,2013-11-03 06:15:00
12:35 AM,39.2,29.3,68,29.78,10.0,East,3.5,-,N/A,,Clear,100,2013-11-03 06:35:00
12:55 AM,37.9,28.9,70,29.77,10.0,East,4.6,-,N/A,,Clear,100,2013-11-03 06:55:00
1:15 AM,37.2,28.6,71,29.77,10.0,East,4.6,-,N/A,,Clear,80,2013-11-03 07:15:00
1:35 AM,36.7,28.2,71,29.75,10.0,East,6.9,-,N/A,,Clear,80,2013-11-03 07:35:00
1:55 AM,35.1,27.9,75,29.75,10.0,East,6.9,-,N/A,,Clear,90,2013-11-03 07:55:00
1:15 AM,36.3,28.8,74,29.74,10.0,ESE,4.6,-,N/A,,Clear,110,2013-11-03 08:15:00
1:35 AM,36.9,28.9,73,29.74,10.0,East,4.6,-,N/A,,Clear,90,2013-11-03 08:35:00
1:55 AM,36.0,28.6,75,29.73,10.0,East,4.6,-,N/A,,Clear,90,2013-11-03 08:55:00
2:15 AM,35.8,28.8,76,29.72,10.0,East,4.6,-,N/A,,Clear,100,2013-11-03 09:15:00
2:35 AM,34.3,28.0,78,29.71,10.0,ENE,6.9,-,N/A,,Clear,70,2013-11-03 09:35:00
2:55 AM,34.7,28.2,77,29.70,10.0,ESE,4.6,-,N/A,,Clear,110,2013-11-03 09:55:00
3:15 AM,34.0,28.0,79,29.69,10.0,East,3.5,-,N/A,,Clear,80,2013-11-03 10:15:00
3:35 AM,32.7,27.9,82,29.69,10.0,Calm,Calm,-,N/A,,Clear,0,2013-11-03 10:35:00
3:55 AM,32.0,27.3,83,29.68,10.0,East,3.5,-,N/A,,Clear,100,2013-11-03 10:55:00
4:15 AM,32.0,27.7,84,29.70,10.0,SSW,3.5,-,N/A,,Clear,200,2013-11-03 11:15:00
4:35 AM,30.2,26.2,85,29.69,10.0,Calm,Calm,-,N/A,,Clear,0,2013-11-03 11:35:00
4:55 AM,32.0,27.7,84,29.70,10.0,NNE,4.6,-,N/A,,Clear,20,2013-11-03 11:55:00
5:15 AM,32.9,28.6,84,29.66,10.0,ENE,6.9,-,N/A,,Clear,60,2013-11-03 12:15:00
5:35 AM,33.3,28.9,84,29.68,10.0,Calm,Calm,-,N/A,,Clear,0,2013-11-03 12:35:00
5:55 AM,32.9,28.9,85,29.65,10.0,ENE,3.5,-,N/A,,Clear,70,2013-11-03 12:55:00
6:15 AM,33.4,29.3,85,29.65,10.0,ESE,3.5,-,N/A,,Clear,110,2013-11-03 13:15:00
6:35 AM,33.8,29.3,84,29.64,10.0,East,3.5,-,N/A,,Clear,90,2013-11-03 13:35:00
6:55 AM,34.7,29.8,82,29.63,10.0,East,5.8,-,N/A,,Clear,90,2013-11-03 13:55:00
7:15 AM,35.6,30.0,80,29.64,10.0,Calm,Calm,-,N/A,,Clear,0,2013-11-03 14:15:00
7:35 AM,35.8,30.2,80,29.64,10.0,ESE,3.5,-,N/A,,Clear,110,2013-11-03 14:35:00
7:55 AM,36.5,30.2,78,29.63,10.0,Calm,Calm,-,N/A,,Clear,0,2013-11-03 14:55:00
8:15 AM,36.9,30.6,78,29.62,10.0,East,5.8,-,N/A,,Clear,100,2013-11-03 15:15:00
8:35 AM,37.4,31.1,78,29.59,10.0,East,6.9,-,N/A,,Clear,90,2013-11-03 15:35:00
8:55 AM,37.8,31.1,77,29.63,10.0,Calm,Calm,-,N/A,,Clear,0,2013-11-03 15:55:00
9:15 AM,38.5,31.1,75,29.64,10.0,West,3.5,-,N/A,,Clear,280,2013-11-03 16:15:00
9:35 AM,39.6,31.3,72,29.62,10.0,Calm,Calm,-,N/A,,Clear,0,2013-11-03 16:35:00
9:55 AM,41.0,31.5,69,29.61,10.0,NNE,3.5,-,N/A,,Clear,30,2013-11-03 16:55:00
10:15 AM,43.2,32.0,65,29.60,10.0,NNW,5.8,-,N/A,,Clear,340,2013-11-03 17:15:00
10:35 AM,44.1,32.0,63,29.59,10.0,North,8.1,-,N/A,,Clear,350,2013-11-03 17:35:00
10:55 AM,45.1,32.7,62,29.59,10.0,NNE,6.9,-,N/A,,Clear,20,2013-11-03 17:55:00
11:15 AM,46.0,33.4,61,29.58,10.0,North,6.9,-,N/A,,Clear,10,2013-11-03 18:15:00
11:35 AM,47.5,34.2,60,29.58,10.0,NNE,6.9,-,N/A,,Clear,30,2013-11-03 18:35:00
11:55 AM,48.9,33.8,56,29.57,10.0,ENE,6.9,-,N/A,,Clear,60,2013-11-03 18:55:00
12:15 PM,49.5,32.5,52,29.56,10.0,NE,8.1,-,N/A,,Clear,40,2013-11-03 19:15:00
12:35 PM,50.2,32.5,51,29.56,10.0,NE,4.6,-,N/A,,Clear,40,2013-11-03 19:35:00
12:55 PM,50.4,32.5,50,29.56,10.0,ESE,4.6,-,N/A,,Clear,110,2013-11-03 19:55:00
1:15 PM,50.9,32.5,49,29.56,10.0,East,5.8,-,N/A,,Clear,100,2013-11-03 20:15:00
1:35 PM,52.0,32.9,48,29.56,10.0,East,4.6,-,N/A,,Clear,100,2013-11-03 20:35:00
1:55 PM,52.0,32.7,48,29.57,10.0,ESE,9.2,-,N/A,,Clear,110,2013-11-03 20:55:00
2:15 PM,52.7,32.5,46,29.57,10.0,East,8.1,-,N/A,,Clear,90,2013-11-03 21:15:00
2:35 PM,53.1,32.4,45,29.57,10.0,East,4.6,-,N/A,,Clear,100,2013-11-03 21:35:00
2:55 PM,53.8,32.5,45,29.57,10.0,SE,8.1,-,N/A,,Clear,130,2013-11-03 21:55:00
3:15 PM,53.2,32.5,45,29.57,10.0,ESE,4.6,-,N/A,,Clear,110,2013-11-03 22:15:00
3:35 PM,53.2,32.7,46,29.57,10.0,SE,6.9,-,N/A,,Clear,130,2013-11-03 22:35:00
3:55 PM,52.3,32.9,48,29.57,10.0,ESE,3.5,-,N/A,,Clear,120,2013-11-03 22:55:00
4:15 PM,51.8,33.3,49,29.57,10.0,Calm,Calm,-,N/A,,Clear,0,2013-11-03 23:15:00
4:35 PM,50.4,33.3,52,29.58,10.0,Calm,Calm,-,N/A,,Clear,0,2013-11-03 23:35:00
4:55 PM,42.6,31.1,64,29.59,10.0,North,4.6,-,N/A,,Clear,350,2013-11-03 23:55:00
5:15 PM,40.3,30.0,67,29.61,10.0,NNW,5.8,-,N/A,,Clear,340,2013-11-04 00:15:00
5:35 PM,39.6,30.7,71,29.61,10.0,North,4.6,-,N/A,,Clear,360,2013-11-04 00:35:00
5:55 PM,38.3,30.0,72,29.61,10.0,North,5.8,-,N/A,,Clear,360,2013-11-04 00:55:00
6:15 PM,37.4,29.8,74,29.62,10.0,NW,5.8,-,N/A,,Clear,320,2013-11-04 01:15:00
6:35 PM,36.7,29.7,76,29.63,10.0,Calm,Calm,-,N/A,,Clear,0,2013-11-04 01:35:00
6:55 PM,37.6,30.4,75,29.64,10.0,Calm,Calm,-,N/A,,Clear,0,2013-11-04 01:55:00
7:15 PM,39.0,30.4,71,29.65,10.0,Calm,Calm,-,N/A,,Clear,0,2013-11-04 02:15:00
7:35 PM,42.3,32.0,67,29.65,10.0,NNW,5.8,-,N/A,,Clear,340,2013-11-04 02:35:00
7:55 PM,45.1,32.7,62,29.67,10.0,NNW,13.8,-,N/A,,Clear,340,2013-11-04 02:55:00
8:15 PM,46.2,33.4,61,29.67,10.0,North,21.9,-,N/A,,Clear,360,2013-11-04 03:15:00
8:35 PM,44.8,33.8,65,29.68,10.0,North,19.6,24.2,N/A,,Clear,360,2013-11-04 03:35:00
8:55 PM,44.6,35.2,70,29.69,10.0,North,19.6,25.3,N/A,,Clear,360,2013-11-04 03:55:00
9:15 PM,44.1,35.6,72,29.69,10.0,North,19.6,25.3,N/A,,Clear,360,2013-11-04 04:15:00
9:35 PM,44.2,35.8,72,29.70,10.0,North,20.7,25.3,N/A,,Clear,360,2013-11-04 04:35:00
9:55 PM,44.4,36.1,73,29.72,10.0,North,23.0,26.5,N/A,,Clear,360,2013-11-04 04:55:00
10:15 PM,44.2,36.0,73,29.73,10.0,NNW,21.9,26.5,N/A,,Scattered Clouds,340,2013-11-04 05:15:00
10:35 PM,44.6,35.6,71,29.73,10.0,North,26.5,31.1,N/A,,Clear,350,2013-11-04 05:35:00
10:55 PM,44.6,35.6,71,29.75,10.0,North,19.6,25.3,N/A,,Scattered Clouds,350,2013-11-04 05:55:00